Regional Weather Roundup
Issued by NWS

Home | Current Version | Previous Version | Text Only | Print | Product List | Glossary Off
Versions: 1 2 3 4 5 6 7 8 9 10 11 12 13 14 15 16 17 18 19 20 21 22 23 24 25 26 27 28 29 30 31 32 33 34 35 36 37 38 39 40 41 42 43 44 45 46 47 48 49 50

340
ASUS43 KOAX 261610
RWRNE

WEATHER ROUNDUP FOR NEBRASKA
NATIONAL WEATHER SERVICE OMAHA NE
1000 AM CST SUN FEB 26 2017

NOTES: SATELLITE DATA IS BEING USED TO AUGMENT CLOUD COVER ABOVE
       12000 FEET.
       "FAIR" INDICATES FEW OR NO CLOUDS BELOW 12,000 FEET WITH NO
       SIGNIFICANT WEATHER AND/OR OBSTRUCTIONS TO VISIBILITY.

  * THESE STATIONS DO NOT REPORT WEATHER SUCH AS RAIN...SNOW OR FOG.

NEZ001>004-019>022-054>056-261700-
NEBRASKA PANHANDLE

CITY           SKY/WX    TMP DP  RH WIND       PRES   REMARKS
SCOTTSBLUFF    SUNNY     15   4  61 NW5       29.86R WCI   8
ALLIANCE       SUNNY      8  -1  66 W9        29.83R WCI  -5
CHADRON        SUNNY     14   2  58 SW6       29.86R WCI   5
KIMBALL        SUNNY     20   7  56 NW7       29.83S WCI  11
SIDNEY         SUNNY     23   9  55 NW18      29.85R WCI   9
$$

NEZ057>060-069>072-079>082-261700-
SOUTHWEST NEBRASKA

CITY           SKY/WX    TMP DP  RH WIND       PRES   REMARKS
NORTH PLATTE   SUNNY     27  13  55 W13       29.90R WCI  16
IMPERIAL       SUNNY     29  10  45 W14       29.91R WCI  18
LEXINGTON      SUNNY     30  15  53 W13       29.92R WCI  20
MCCOOK         SUNNY     36  12  37 NW20G26   29.93S WCI  25
OGALLALA       SUNNY     28  14  56 NW14      29.90R WCI  16
$$

NEZ005>010-023>029-035>040-094-261700-
NORTH CENTRAL NEBRASKA

CITY           SKY/WX    TMP DP  RH WIND       PRES   REMARKS
VALENTINE      SUNNY     15   6  67 W9        29.86R WCI   3
AINSWORTH      SUNNY     22  13  67 W8        29.85R WCI  12
BROKEN BOW     SUNNY     24  12  60 W5        29.88R WCI  18
O`NEILL        SUNNY     24  14  65 W7        29.88R WCI  16
ORD            SUNNY     27  13  55 N6        29.90R WCI  20
THEDFORD       SUNNY     21  10  61 W12       29.87R WCI  10
$$

NEZ041-046>049-061>064-073>077-083>087-261700-
SOUTH CENTRAL NEBRASKA

CITY           SKY/WX    TMP DP  RH WIND       PRES   REMARKS
GRAND ISLAND   SUNNY     32  19  58 W12       29.92R WCI  23
AURORA         SUNNY     33  19  56 W8        29.92S WCI  26
HASTINGS       SUNNY     33  17  51 W12       29.94R WCI  24
HEBRON         SUNNY     42  20  42 W13       29.97R
HOLDREGE       SUNNY     34  12  41 NW10      29.92S WCI  26
KEARNEY *      SUNNY     32  12  43 W12       29.93R WCI  23
YORK           SUNNY     32  21  64 W12       29.93R WCI  23
$$

NEZ011>018-030>034-042>045-261700-
NORTHEAST NEBRASKA

CITY           SKY/WX    TMP DP  RH WIND       PRES   REMARKS
NORFOLK        SUNNY     24  13  62 W9        29.90R WCI  14
ALBION         SUNNY     27  14  58 W6        29.91R WCI  21
BLAIR          SUNNY     32  19  59 W10       29.91R WCI  24
FREMONT        SUNNY     32  19  59 W14       29.93R WCI  22
TEKAMAH        SUNNY     28  16  60 SW7       29.93R WCI  21
WAYNE          SUNNY     25  14  64 W9        29.90R WCI  15
$$

NEZ050>053-065>068-078-088>093-261700-
SOUTHEAST NEBRASKA

CITY           SKY/WX    TMP DP  RH WIND       PRES   REMARKS
LINCOLN        SUNNY     36  22  56 W10       29.96R WCI  28
OMAHA EPPLEY   MOSUNNY   37  18  46 W13       29.93R WCI  29
BEATRICE       SUNNY     43  25  49 SW13      29.96R
FALLS CITY     PTSUNNY   42  33  70 SW16G25   29.97S
NEBRASKA CITY  SUNNY     40  22  49 W9        29.96R WCI  34
PLATTSMOUTH    SUNNY     37  19  48 W14       29.95R WCI  28
$$

NEZ044-045-051>053-067-261700-
OMAHA AREA

CITY           SKY/WX    TMP DP  RH WIND       PRES   REMARKS
OMAHA EPPLEY   MOSUNNY   37  18  46 W13       29.93R WCI  29
BLAIR          SUNNY     32  19  59 W10       29.91R WCI  24
FREMONT        SUNNY     32  19  59 W14       29.93R WCI  22
MILLARD        SUNNY     37  21  53 W10G17    29.94R WCI  29
OFFUTT AFB     SUNNY     37  19  50 SW12      29.94R WCI  29
PLATTSMOUTH    SUNNY     37  19  48 W14       29.95R WCI  28
WAHOO          FAIR      32  19  58 W12       29.93R WCI  23
$$




USA.gov is the U.S. government's official web portal to all federal, state and local government web resources and services.